User: anonymous   Login
Location: Brno
(49.2000°N, 16.6330°E)
Time: 14:05:00
(UTC+02:00)
Language:

ISS - Orbit

View from above orbital plane
View from above orbital plane
View from above satellite
View from above satellite

Ground track
Ground track

The orbit data is extracted from the following two-line orbital elements,

1 25544U 98067A   16241.14655215  .00003187  00000-0  54953-4 0  9992
2 25544  51.6453  58.9571 0002981 250.0016 221.6665 15.54339053 16187
Epoch (UTC): 28 August 2016 03:31:02
Eccentricity: 0.0002981
inclination: 51.6453°
perigee height: 402 km
apogee height: 406 km
right ascension of ascending node: 58.9571°
argument of perigee: 250.0016°
revolutions per day: 15.54339053
mean anomaly at epoch: 221.6665°
orbit number at epoch: 1618

The dashed part of the orbit path shows where the satellite is in the earth's shadow,  

DLR